{"data":{"norad_id":60189,"epoch":"2026-05-24T17:38:53.430432Z","epoch_age_seconds":94359,"freshness":"FRESH","line1":"1 60189U 24124G   26144.73534063  .00000553  00000+0  94244-5 0  9995","line2":"2 60189  53.1592 146.6926 0001102  82.9605 277.1538 15.69714022108479","mean_motion":15.69714022,"eccentricity":0.0001102,"inclination_deg":53.1592,"raan_deg":146.6926,"arg_perigee_deg":82.9605,"mean_anomaly_deg":277.1538,"bstar":9.4244e-6,"rev_number":10847,"period_min":91.736455164315,"perigee_km":358.97272970293,"apogee_km":360.45775233686,"semimajor_km":6737.8522410199,"source":"CELESTRAK","updated_at":"2026-05-25T13:38:19.194382Z"}}